Location: Agadir Mansour Mhndou
(31.2424°N, 8.7730°W)
Time: 18:50:36
(UTC+00:00)

ATLAS 3B R/B - Pass Details

Date: 16 October 2021
Orbit: 989 x 1206 km, 63.8° (Epoch: 25 November)

Event Time Altitude Azimuth Distance (km) Brightness Sun altitude
Rises 18:20:00 0° 223° (SW) 3,686 6.4 -4.6°
Reaches altitude 10° 18:22:38 10° 229° (SW) 2,746 5.9 -5.2°
Maximum altitude 18:28:49 49° 303° (WNW) 1,283 3.6 -6.5°
Drops below altitude 10° 18:35:15 10° 18° (NNE) 2,849 4.7 -7.9°
Sets 18:38:03 0° 24° (NNE) 3,836 5.3 -8.5°
